| time (UTC) | temp F | wind direction | speed MPH | gust MPH | rain 1hr in | rain 24hr in | rain mn in | humidity % | barometer mb |
| 20260503200012 | 50 | 303 | 0.0 | 4.0 | 0.00 | 0.00 | 0.00 | 97 | 1010.2 |
| 20260503194517 | 50 | 221 | 1.0 | 3.0 | 0.00 | 0.00 | 0.00 | 96 | 1010.3 |
| 20260503193007 | 51 | 221 | 0.0 | 2.0 | 0.00 | 0.00 | 0.00 | 96 | 1010.0 |
| 20260503191506 | 51 | 221 | 0.0 | 2.0 | 0.00 | 0.00 | 0.00 | 96 | 1010.1 |
| 20260503190007 | 51 | 221 | 0.0 | 3.0 | 0.00 | 0.00 | 0.00 | 95 | 1010.3 |
| 20260503184505 | 51 | 222 | 0.0 | 3.0 | 0.00 | 0.00 | 0.00 | 95 | 1010.2 |
| 20260503183003 | 51 | 195 | 1.0 | 2.0 | 0.00 | 0.00 | 0.00 | 94 | 1010.0 |
| 20260503181505 | 51 | 195 | 1.0 | 3.0 | 0.00 | 0.00 | 0.00 | 95 | 1010.2 |
| 20260503180003 | 52 | 205 | 2.0 | 4.0 | 0.00 | 0.00 | 0.00 | 94 | 1010.1 |
| 20260503174502 | 53 | 252 | 2.0 | 4.0 | 0.00 | 0.00 | 0.00 | 93 | 1010.0 |
| 20260503173002 | 53 | 217 | 2.0 | 4.0 | 0.00 | 0.00 | 0.00 | 90 | 1009.7 |
| 20260503171502 | 54 | 232 | 3.0 | 5.0 | 0.00 | 0.00 | 0.00 | 89 | 1009.7 |
| 20260503054540 | 56 | 186 | 1.0 | 5.0 | 0.00 | 0.00 | 0.00 | 86 | 1011.3 |
| 20260503053035 | 55 | 186 | 2.0 | 5.0 | 0.00 | 0.00 | 0.00 | 88 | 1011.4 |
| 20260503051518 | 54 | 187 | 2.0 | 5.0 | 0.00 | 0.00 | 0.00 | 90 | 1011.5 |
| 20260503050014 | 53 | 196 | 3.0 | 6.0 | 0.00 | 0.00 | 0.00 | 91 | 1011.5 |
| 20260503044513 | 52 | 182 | 2.0 | 5.0 | 0.00 | 0.00 | 0.00 | 92 | 1011.4 |
| 20260503043019 | 52 | 200 | 3.0 | 8.0 | 0.00 | 0.00 | 0.00 | 92 | 1011.6 |
| 20260503041511 | 52 | 175 | 1.0 | 3.0 | 0.00 | 0.00 | 0.00 | 92 | 1011.7 |
| 20260503033110 | 51 | 162 | 1.0 | 6.0 | 0.00 | 0.00 | 0.00 | 92 | 1011.5 |
| 20260503031558 | 51 | 203 | 6.0 | 10.0 | 0.00 | 0.00 | 0.00 | 92 | 1011.6 |
| 20260503030131 | 52 | 197 | 4.0 | 9.0 | 0.00 | 0.00 | 0.00 | 92 | 1011.6 |
| 20260503021546 | 54 | 196 | 3.0 | 11.0 | 0.00 | 0.00 | 0.00 | 89 | 1011.3 |
| 20260503020046 | 54 | 217 | 6.0 | 15.0 | 0.00 | 0.00 | 0.00 | 87 | 1011.4 |
| 20260503014544 | 54 | 198 | 5.0 | 11.0 | 0.00 | 0.00 | 0.00 | 87 | 1011.5 |
| 20260503013044 | 53 | 197 | 5.0 | 10.0 | 0.00 | 0.00 | 0.00 | 87 | 1011.7 |
| 20260503011543 | 55 | 219 | 5.0 | 12.0 | 0.00 | 0.00 | 0.00 | 85 | 1011.7 |
| 20260503010042 | 55 | 205 | 5.0 | 11.0 | 0.00 | 0.00 | 0.00 | 85 | 1011.7 |
| 20260503004541 | 55 | 202 | 5.0 | 11.0 | 0.00 | 0.00 | 0.00 | 84 | 1011.8 |
| 20260503003040 | 55 | 206 | 7.0 | 12.0 | 0.00 | 0.00 | 0.00 | 84 | 1011.9 |
| 20260503001538 | 55 | 216 | 5.0 | 10.0 | 0.00 | 0.00 | 0.00 | 85 | 1012.0 |
| 20260503000036 | 55 | 207 | 7.0 | 13.0 | 0.00 | 0.00 | 0.00 | 85 | 1012.1 |
| 20260502234546 | 53 | 221 | 8.0 | 12.0 | 0.00 | 0.00 | 0.00 | 89 | 1012.3 |
| 20260502233030 | 52 | 226 | 6.0 | 10.0 | 0.00 | 0.00 | 0.00 | 90 | 1012.5 |
| 20260502231530 | 52 | 219 | 7.0 | 12.0 | 0.00 | 0.00 | 0.00 | 90 | 1012.4 |
| 20260502230027 | 52 | 222 | 6.0 | 10.0 | 0.00 | 0.00 | 0.00 | 90 | 1012.6 |
| 20260502224527 | 53 | 219 | 7.0 | 11.0 | 0.00 | 0.00 | 0.00 | 89 | 1012.5 |
| 20260502223023 | 52 | 225 | 7.0 | 14.0 | 0.00 | 0.00 | 0.00 | 90 | 1012.5 |
| 20260502221523 | 52 | 234 | 7.0 | 16.0 | 0.00 | 0.00 | 0.00 | 90 | 1012.8 |
| 20260502220018 | 52 | 196 | 6.0 | 12.0 | 0.00 | 0.00 | 0.00 | 91 | 1012.8 |
| 20260502214533 | 51 | 225 | 6.0 | 16.0 | 0.00 | 0.00 | 0.00 | 92 | 1012.9 |
| 20260502213016 | 51 | 222 | 5.0 | 10.0 | 0.00 | 0.00 | 0.00 | 93 | 1013.0 |
| 20260502211518 | 51 | 213 | 7.0 | 13.0 | 0.00 | 0.00 | 0.00 | 93 | 1013.2 |
| 20260502210024 | 51 | 231 | 8.0 | 14.0 | 0.00 | 0.00 | 0.00 | 92 | 1013.3 |
| 20260502204517 | 51 | 228 | 9.0 | 17.0 | 0.00 | 0.00 | 0.00 | 92 | 1013.3 |
| 20260502203015 | 51 | 214 | 6.0 | 11.0 | 0.00 | 0.00 | 0.00 | 92 | 1013.4 |
| 20260502201513 | 52 | 211 | 5.0 | 12.0 | 0.00 | 0.00 | 0.00 | 91 | 1013.4 |